Temp
10 9 9 9 9 9 9 9 10 10 10 9 9 10 10 10 10 10 11 12 13 13 13 15 15 15 16 18 18 20 21 22 23 23 24 25 24 25 26 27 26 27 27 25 23
9 9 9 9 9 9 9 9 9 9 9 9 9 9 9 10 10 11 12 12 13 13 14 15 16 15 16 18 18 20 21 23 24 24 23 22 24 25 25 25 26 26 25 22 23
9 9 9 9 8 8 9 9 8 8 9 8 9 9 9 9 11 13 13 12 13 13 14 15 17 15 16 18 18 19 20 23 20 21 22 22 23 24 25 24 27 26 26 23 21
8 8 8 8 8 8 8 8 8 8 8 8 8 8 8 9 11 13 13 14 13 13 14 15 16 14 15 16 19 18 20 20 21 20 20 21 23 23 24 26 25 25 24 24 23
8 8 8 8 8 8 8 8 8 8 8 8 8 8 8 9 10 12 11 11 13 13 14 15 16 16 16 16 18 17 19 20 21 20 20 20 21 23 23 24 23 23 22 24 24
8 8 8 7 7 8 8 8 8 8 8 8 8 7 8 7 10 11 10 11 13 14 13 15 16 17 18 17 16 18 19 19 20 20 19 19 20 20 22 24 23 23 23 23 23
8 8 8 7 7 7 7 8 8 8 8 8 8 8 9 10 10 11 10 9 11 12 14 15 16 17 18 17 18 18 17 18 19 19 19 20 19 20 22 23 23 23 23 23 23
7 7 7 7 7 7 7 7 7 7 8 7 8 8 8 10 10 10 10 10 10 12 14 15 14 17 18 19 18 17 17 17 19 19 19 20 20 21 22 22 23 23 24 24 23
7 8 8 7 7 7 7 7 7 8 8 8 7 8 8 9 10 10 11 11 12 13 14 15 13 15 15 17 16 17 17 18 18 19 20 19 20 22 22 21 22 22 23 23 23
8 7 7 7 7 7 7 6 7 7 7 7 8 8 9 10 11 11 11 11 12 14 13 14 13 13 14 16 17 17 17 18 18 18 19 19 19 19 20 19 21 22 22 22 22
7 7 7 7 7 6 6 7 9 8 8 9 9 10 10 10 10 11 11 11 12 13 13 14 13 13 14 17 20 20 18 17 18 18 18 19 19 19 20 21 21 22 22 23 23
7 7 7 7 7 6 6 6 8 7 7 9 9 9 9 9 9 10 11 10 12 13 15 13 12 14 16 17 17 18 18 18 16 18 18 17 18 19 19 20 20 21 22 22 21
7 7 7 8 7 5 5 5 6 6 6 8 8 8 9 10 8 8 11 10 14 13 15 14 13 14 14 15 15 17 18 18 17 16 16 17 19 19 18 18 18 18 18 18 18
6 7 6 8 7 5 5 5 5 5 6 7 8 9 9 9 8 9 10 12 13 12 12 12 12 13 13 14 15 14 17 17 16 17 18 16 20 18 17 16 17 18 18 18 18
6 6 7 7 6 6 5 5 5 5 7 7 7 8 9 9 7 10 10 13 14 12 12 10 11 10 10 13 14 12 16 16 16 16 16 16 18 18 18 17 17 17 17 17 17
6 6 7 6 6 5 5 5 5 7 7 7 8 7 7 6 7 10 10 14 15 12 11 10 11 11 12 11 12 11 13 14 15 15 15 17 16 18 18 18 17 17 17 17 17
6 6 6 6 6 5 5 5 7 9 7 8 8 7 7 8 9 9 12 13 14 12 11 10 10 10 11 9 10 11 13 13 14 14 17 13 15 18 17 17 18 17 17 16 17
6 7 7 6 6 5 4 6 9 9 8 8 7 7 7 11 10 11 11 12 13 14 13 12 11 10 9 12 13 13 15 16 16 16 17 13 16 18 15 16 17 16 16 15 16
6 7 6 6 6 5 6 9 8 7 7 8 8 8 10 11 10 11 10 11 11 13 13 12 11 10 11 12 14 14 14 14 12 12 15 17 16 16 15 16 16 16 16 16 15
5 6 7 6 6 7 8 8 8 8 6 6 10 13 11 13 12 14 13 11 13 13 14 13 12 12 12 14 13 15 14 14 13 15 16 16 17 18 15 16 16 17 17 16 15
5 10 8 7 6 8 8 8 8 9 8 10 12 13 13 13 14 14 12 12 13 13 14 14 14 11 13 13 13 13 13 12 14 14 17 18 19 19 17 17 17 16 16 15 15
6 10 9 7 9 8 9 9 9 10 10 10 13 13 13 14 14 14 13 14 13 14 14 13 14 12 12 12 13 14 14 15 15 13 12 14 17 17 18 16 15 16 15 15 14
7 8 9 7 8 9 11 11 11 12 12 13 13 14 13 13 14 13 13 13 13 14 15 15 13 12 11 13 13 13 13 13 12 12 12 16 17 15 16 15 16 15 16 14 13
7 8 10 10 9 9 9 10 12 11 13 13 13 14 14 13 14 13 13 13 13 14 12 14 13 13 14 14 13 10 12 12 11 12 14 15 16 16 16 16 17 16 15 14 13
7 7 7 8 10 9 11 11 12 11 13 13 14 13 14 13 13 12 12 13 13 12 13 14 12 11 12 12 12 12 12 11 10 12 13 15 15 17 17 16 16 16 14 13 11
7 6 7 8 9 11 10 11 12 12 12 12 12 12 14 13 13 13 13 13 14 13 14 13 11 11 10 12 11 11 12 12 12 13 13 13 14 17 17 16 16 14 12 11 10
5 5 6 9 9 11 8 9 10 11 12 12 12 13 12 11 11 13 13 13 13 13 13 13 12 12 12 11 12 12 12 12 12 12 13 13 15 17 16 16 14 13 11 10 9
Height
815 812 809 807 805 802 801 798 796 795 794 793 793 792 791 790 788 787 784 783 784 787 788 788 790 793 795 791 792 788 787 782 780 784 780 777 783 778 778 779 781 779 779 784 787
811 809 806 803 801 799 797 794 792 791 790 789 789 788 787 787 784 776 778 778 780 783 787 786 785 791 790 788 790 785 782 773 768 773 780 783 778 778 782 782 782 780 782 785 786
808 805 803 800 797 795 793 791 789 787 786 785 784 784 784 784 779 761 767 772 775 780 783 785 784 788 789 785 786 782 776 770 780 780 778 782 781 777 777 785 774 778 780 784 788
804 801 798 796 793 791 788 786 784 782 781 780 781 781 781 782 771 759 762 764 769 774 779 781 782 785 785 786 780 786 779 777 778 779 780 783 777 779 777 774 776 779 782 783 785
801 798 794 791 789 787 784 782 780 778 777 776 777 778 778 777 767 761 761 763 766 769 772 775 775 776 779 781 781 784 780 779 777 780 781 783 782 779 779 777 780 782 785 783 784
797 794 790 787 784 782 779 777 776 774 773 773 773 774 776 775 760 761 763 763 763 762 765 769 767 770 772 776 781 778 780 780 778 779 783 786 785 786 779 777 779 780 781 782 784
793 789 786 783 780 778 775 773 772 770 769 769 770 771 770 756 758 759 761 762 760 761 761 764 769 769 764 775 773 779 784 781 779 780 783 784 786 778 777 777 776 777 778 780 782
790 786 782 778 776 773 771 769 767 765 764 765 766 767 760 755 756 755 759 758 759 758 757 764 771 767 766 765 773 779 782 785 774 777 782 783 771 770 770 772 773 774 774 775 777
786 782 778 775 772 769 766 764 761 760 760 760 763 763 756 753 752 749 753 755 755 754 757 763 771 767 770 767 778 777 773 776 775 770 776 780 772 767 768 773 773 772 772 773 773
783 779 774 770 766 763 762 759 757 755 756 757 759 764 752 747 747 746 747 752 752 750 757 762 767 766 768 764 763 762 767 770 772 773 773 776 775 775 773 775 772 768 769 770 770
780 774 767 761 757 755 758 757 756 755 754 748 749 747 746 747 744 742 745 748 751 747 749 753 760 753 757 751 746 748 764 772 772 772 773 772 774 772 769 769 768 765 764 764 764
776 768 761 755 751 749 753 754 753 755 750 748 748 748 747 749 746 740 741 747 744 740 742 757 754 756 754 754 756 757 762 767 779 771 773 775 775 770 768 766 765 764 761 760 764
773 765 758 752 749 749 750 750 752 754 754 747 746 744 743 747 748 743 743 743 733 741 737 746 754 752 759 758 761 757 757 762 768 779 778 776 768 764 770 770 770 768 766 767 767
771 764 757 752 752 752 751 751 754 756 750 746 744 742 742 744 744 738 741 736 733 741 747 753 758 754 761 759 760 771 761 762 771 770 767 777 757 766 770 773 770 768 767 767 767
770 764 758 753 755 754 756 755 756 756 738 749 745 747 739 740 745 732 733 728 727 731 740 764 762 767 775 760 762 774 764 765 770 772 773 775 768 764 768 771 771 770 770 769 768
770 763 758 757 756 758 757 757 758 750 741 748 745 747 745 745 740 733 735 730 728 738 751 760 760 763 762 766 766 778 776 774 774 774 780 769 772 761 764 764 769 769 768 768 767
768 762 758 756 758 757 757 758 746 730 755 747 746 751 749 745 738 737 730 729 731 742 754 762 770 769 767 778 782 781 772 779 780 780 764 786 780 758 766 767 765 768 769 770 768
765 759 759 756 756 756 756 754 732 744 751 747 750 750 747 733 743 736 739 739 740 734 746 754 764 775 776 767 768 768 761 754 763 763 758 787 769 757 769 768 768 771 770 770 768
762 759 758 756 756 755 754 737 754 753 754 751 746 743 735 736 738 739 749 752 751 743 747 756 767 776 773 768 762 764 763 768 776 787 768 755 766 765 768 769 769 769 769 768 768
761 759 757 756 754 755 746 749 756 757 758 757 739 721 736 732 740 734 743 755 746 748 746 754 763 769 771 767 768 762 768 768 772 768 759 759 756 748 768 765 767 766 764 766 767
760 754 757 754 753 752 751 757 759 754 756 745 732 730 732 735 735 737 746 750 748 748 744 746 749 773 766 765 764 770 768 774 765 768 749 746 742 740 755 759 764 766 767 767 767
761 755 756 754 753 758 753 756 754 749 750 745 736 732 733 734 736 738 743 743 747 744 744 749 752 764 768 769 767 765 763 761 758 772 777 766 749 753 751 759 766 765 765 766 768
765 763 755 754 760 757 749 748 749 743 740 736 735 734 736 737 739 743 746 749 747 745 742 745 755 767 773 771 770 768 767 769 772 775 775 752 751 761 760 763 761 763 762 764 767
768 764 760 759 764 761 759 751 744 745 741 740 739 737 737 740 740 746 747 750 749 747 749 745 755 757 749 752 759 774 767 768 773 768 762 757 753 755 755 756 755 756 760 762 765
773 777 778 769 758 763 754 749 743 747 742 740 739 741 739 742 743 748 751 751 749 751 749 747 759 764 762 761 763 764 765 769 776 766 762 754 754 747 752 754 753 752 758 762 766
778 780 778 770 769 757 758 754 749 748 746 744 745 746 740 741 745 746 746 747 745 750 749 753 763 764 771 766 767 768 763 764 766 761 762 762 758 746 745 749 751 753 759 763 766
786 785 781 771 767 759 770 765 758 753 751 750 748 746 747 752 752 748 749 748 748 750 754 753 758 759 760 765 761 756 754 757 760 759 758 761 748 744 748 749 751 755 759 762 764
Wind_Speed
23 21 20 19 19 19 19 18 16 16 15 16 15 15 14 15 16 15 14 10 19 17 4 9 17 14 10 8 6 5 9 17 23 21 17 7 14 9 3 9 8 7 4 3 2
22 22 22 21 20 19 20 20 19 18 18 17 18 16 15 14 19 26 18 16 23 14 16 12 16 16 8 9 7 11 14 21 14 12 12 11 13 12 9 12 12 10 5 2 7
22 21 21 21 20 19 20 20 19 18 18 18 16 15 13 11 17 15 21 28 25 22 16 16 17 14 12 11 11 13 17 12 6 7 7 11 11 7 10 12 13 13 5 2 6
22 22 22 21 20 20 20 19 18 18 17 16 14 14 12 7 7 8 2 30 28 25 21 18 17 12 11 12 16 11 16 8 6 5 6 8 7 9 11 4 5 7 4 1 6
22 23 23 21 19 18 18 17 17 17 14 14 13 12 7 8 15 17 15 6 8 25 28 20 22 22 19 14 14 16 6 14 9 5 4 6 7 9 11 8 4 3 2 2 2
23 22 21 19 18 16 16 17 16 16 14 13 10 8 8 13 19 22 15 13 6 18 29 28 17 22 15 11 16 9 15 5 14 10 4 6 7 5 9 12 11 9 10 8 7
23 23 22 20 18 18 18 17 17 17 16 13 12 8 11 19 9 7 9 9 11 13 18 31 15 21 10 11 14 5 12 18 13 10 9 9 16 18 13 10 10 9 11 10 9
24 24 23 22 18 18 18 18 18 18 17 15 11 8 9 9 16 26 22 25 19 16 23 28 21 19 10 7 13 16 7 10 15 19 6 11 21 2 7 20 18 17 15 14 15
26 26 25 23 22 21 20 19 19 18 17 14 7 6 8 6 10 21 19 11 13 13 19 21 15 8 11 16 10 15 13 20 7 19 14 17 10 10 5 8 11 10 11 13 15
29 28 28 27 24 21 19 16 17 7 1 5 5 3 7 5 12 11 16 20 11 13 11 15 11 7 9 14 16 21 22 13 16 9 20 15 17 4 7 5 9 10 10 11 14
28 31 32 30 27 20 17 8 4 3 5 5 5 4 2 9 8 9 15 12 11 14 11 19 11 9 17 24 12 12 17 10 14 6 12 16 12 15 14 14 14 14 14 13 13
31 32 27 25 19 12 9 3 2 4 5 7 11 13 15 6 5 5 10 7 9 10 19 11 17 21 15 17 10 12 16 14 3 9 7 6 9 11 14 16 13 14 14 13 10
32 29 27 22 10 6 6 5 4 3 3 4 3 5 9 8 3 9 18 6 17 15 23 13 2 9 12 17 11 14 15 13 6 7 3 2 8 11 4 2 3 1 1 0 2
30 25 21 17 5 6 4 3 3 2 2 1 2 3 3 3 4 9 23 8 5 15 11 5 1 13 15 14 13 8 6 11 11 10 4 3 3 4 5 7 7 7 6 5 5
29 20 14 14 4 3 2 3 6 2 0 3 2 2 1 3 7 4 12 7 14 6 7 4 11 12 2 8 13 4 7 10 6 4 1 5 4 7 8 9 9 7 6 6 5
29 15 11 5 7 7 4 3 0 3 6 4 3 3 1 3 6 7 6 1 8 10 14 5 3 7 3 4 8 10 9 10 6 2 3 5 4 8 8 9 8 5 5 5 6
28 10 7 3 2 5 1 1 2 4 0 5 3 2 2 4 2 4 4 7 4 5 4 4 4 4 8 7 10 6 10 4 3 3 1 1 4 4 8 4 8 5 5 5 5
26 4 2 3 5 0 1 2 10 6 6 2 4 5 3 5 5 3 8 5 9 5 5 3 4 1 4 2 7 14 2 3 5 6 5 3 5 4 2 5 6 1 0 2 5
20 2 1 1 2 6 2 6 4 4 3 1 3 7 4 7 4 7 6 3 2 3 4 4 3 4 2 1 3 5 3 2 5 2 2 4 3 2 7 10 5 2 3 3 4
9 2 1 5 6 3 2 6 3 1 2 2 4 8 7 14 5 3 4 1 1 2 2 5 6 4 7 8 8 1 8 3 1 5 4 5 4 6 12 10 6 4 2 2 3
2 0 1 12 3 3 4 3 2 3 4 3 5 8 11 5 6 4 2 2 3 1 2 5 3 4 3 1 5 4 2 2 1 2 2 4 3 7 17 13 9 4 1 0 2
4 2 9 9 2 1 2 3 2 2 4 4 2 6 4 3 5 4 4 1 1 1 3 1 5 4 2 3 2 1 2 3 3 4 1 1 3 6 15 11 2 5 2 1 1
2 2 5 4 3 4 2 1 2 6 5 4 4 4 3 3 4 4 3 3 1 1 3 5 4 5 2 2 2 5 4 3 4 2 4 2 4 3 7 7 7 6 3 1 2
1 2 3 3 2 3 5 4 3 1 5 3 3 2 3 5 6 4 5 3 4 4 7 3 3 0 3 3 4 4 8 8 3 3 4 4 2 8 8 5 6 3 2 2 2
3 3 2 4 5 7 6 5 4 5 5 9 4 7 2 2 3 4 3 4 3 3 2 1 3 2 3 2 2 3 5 10 6 3 4 2 4 6 3 7 5 4 2 1 2
3 2 3 3 6 5 9 8 8 4 6 4 5 7 4 3 3 5 5 3 3 1 2 2 3 2 2 2 5 5 7 10 12 11 11 8 14 10 8 4 4 1 1 1 2
6 4 2 3 3 2 3 4 6 5 4 5 2 4 8 4 1 3 1 4 4 4 2 1 4 1 0 2 3 5 9 12 8 8 11 9 7 3 7 5 4 3 2 2 2
Wind_Direction
320 319 319 317 311 308 304 299 296 296 292 287 284 290 292 300 296 286 255 230 223 236 258 199 200 218 198 191 197 208 220 222 215 223 220 197 209 196 203 216 203 197 267 40 90
319 323 321 316 314 312 307 303 300 297 294 290 289 286 288 296 299 271 239 233 228 226 225 220 189 200 195 190 188 203 217 220 223 218 215 180 211 186 187 198 209 205 201 29 165
323 322 320 318 315 314 313 308 301 293 289 286 285 280 283 296 299 267 234 232 227 219 225 218 205 196 201 189 190 213 225 199 207 198 183 170 194 188 199 199 204 205 184 138 174
322 321 317 314 314 312 307 304 302 297 288 284 281 281 278 262 253 47 145 229 217 210 209 202 207 189 206 193 195 220 228 254 202 168 167 170 176 201 212 173 172 129 85 121 185
326 322 320 316 311 310 306 304 302 300 292 287 280 274 284 234 243 260 326 352 207 218 205 201 200 201 203 199 198 223 198 216 228 158 162 135 190 218 229 192 175 238 249 209 219
323 322 317 314 308 307 305 301 298 299 299 294 278 275 226 252 246 265 261 297 281 216 203 195 208 200 210 209 200 204 223 202 226 216 213 228 219 216 226 241 233 234 247 241 239
322 320 319 313 307 303 301 299 293 291 288 277 274 256 239 240 241 270 244 270 283 295 196 197 213 190 201 189 195 187 206 225 232 220 228 236 255 228 237 230 231 222 240 245 235
324 322 321 317 308 305 303 298 294 290 288 281 271 249 251 251 257 263 265 269 269 264 214 195 209 203 209 170 179 200 221 196 214 217 192 189 250 229 234 229 237 243 243 246 248
329 325 318 313 308 304 302 299 294 290 283 270 246 208 263 287 242 255 231 227 245 230 197 190 194 204 190 177 171 199 210 214 197 209 199 205 246 219 246 204 223 231 234 241 254
327 325 319 311 303 302 301 303 299 289 10 144 146 191 239 271 287 270 222 209 239 176 168 191 195 186 195 188 196 196 211 206 206 181 207 215 236 201 190 227 247 248 246 240 244
330 324 321 314 300 278 297 312 230 178 203 228 190 241 193 331 272 252 182 184 218 177 170 187 204 215 176 195 222 210 196 197 219 187 199 223 232 233 252 269 262 259 257 253 247
332 336 334 327 323 288 287 232 293 59 294 245 250 249 269 304 302 207 163 181 200 180 170 170 210 204 190 203 183 183 192 197 123 194 213 176 233 233 234 245 260 268 265 267 274
339 344 343 344 357 33 292 193 149 78 275 290 244 248 229 208 248 229 182 236 187 184 181 170 231 195 190 196 183 200 200 182 188 154 173 252 248 221 188 201 199 119 160 142 304
344 347 353 359 46 358 12 186 183 204 245 113 201 164 168 166 225 222 170 241 131 180 112 131 187 159 191 204 172 172 233 169 145 179 197 228 187 141 120 115 130 115 98 80 59
347 348 7 40 356 26 26 94 133 247 162 14 77 2 195 276 332 152 187 281 152 120 113 141 170 137 142 177 155 119 146 138 146 136 190 197 243 121 146 136 127 111 85 66 51
347 344 14 29 36 24 72 98 152 238 52 6 78 48 2 7 329 127 190 304 68 71 80 109 125 159 143 130 104 135 91 86 87 114 218 159 249 161 178 160 141 117 79 57 43
343 328 14 44 106 90 56 306 247 28 161 2 31 29 321 214 175 76 109 112 116 131 100 72 44 71 75 90 131 185 148 112 147 190 218 158 201 59 151 167 145 120 87 49 32
341 307 26 104 140 204 341 228 45 18 39 337 35 357 337 142 107 83 81 72 32 79 99 85 112 19 187 205 170 178 268 177 161 184 137 145 220 140 264 175 152 194 87 44 41
338 304 196 292 218 306 279 61 38 329 336 2 239 216 121 83 81 66 50 67 56 18 86 113 84 110 196 13 163 177 201 28 105 67 181 169 190 154 131 153 194 175 153 74 34
332 322 301 326 305 289 312 77 69 2 322 338 342 43 96 114 68 110 66 229 80 223 230 161 109 98 147 175 56 227 130 162 320 154 202 185 207 145 169 162 148 137 116 93 24
348 306 344 345 120 17 43 40 298 248 213 280 25 93 115 108 97 81 80 153 224 114 132 127 81 122 174 216 163 137 182 63 68 311 210 165 141 154 162 148 119 74 52 84 14
345 44 346 353 59 6 30 340 286 302 188 270 16 62 74 82 70 90 126 64 91 254 97 45 103 135 111 21 318 285 203 196 240 183 29 10 94 176 155 149 109 11 348 156 68
17 308 341 344 56 19 41 76 318 18 7 17 47 43 38 68 98 69 82 33 46 267 152 158 116 117 154 192 188 221 194 149 99 48 201 206 118 130 194 222 259 283 323 173 80
338 33 342 29 52 2 356 357 38 49 41 46 66 90 89 56 44 125 117 37 358 72 56 92 99 274 164 70 127 191 195 186 156 186 161 223 106 165 171 229 304 319 182 156 98
15 66 31 354 353 342 350 354 44 17 10 22 63 37 43 113 98 109 113 145 77 10 69 51 105 93 92 105 171 211 204 195 205 187 218 88 197 168 260 295 300 323 130 116 124
31 8 349 309 321 352 8 11 27 25 6 27 71 37 45 85 14 172 149 185 175 114 67 30 118 133 128 162 215 227 211 210 221 228 248 257 284 270 273 287 281 34 160 194 121
5 341 299 350 352 16 2 324 338 321 72 53 46 81 62 31 352 66 48 93 120 155 123 85 139 163 74 319 285 253 232 203 191 210 217 221 234 273 284 300 291 242 223 181 137